Location: Clyde
(45.1830°S, 169.3170°E)
Time: 21:24:36
(UTC+13:00)

Meteor 2-8 Rocket - Pass Details

Date: 24 January 2019
Orbit: 937 x 957 km, 82.5° (Epoch: 18 October)

Event Time Altitude Azimuth Distance (km) Brightness Sun altitude
Rises 23:17:36 0° 190° (S) 3,639 8.6 -16.4°
Reaches altitude 10° 23:20:07 10° 190° (S) 2,687 7.8 -16.6°
Maximum altitude 23:26:17 87° 278° (W) 957 4.4 -17.3°
Enters shadow 23:30:16 23° 5° (N) 1,890 5.5 -17.7°
